Weather History for Fredericksburg, TX

Change the Weather History Date:

Friday, November 16, 2012

  Actual Average (KSAT) Record (KSAT)
Temperature  
Mean Temperature 52 °F 61 °F  
Max Temperature 65 °F 72 °F 86 °F (1938)
Min Temperature 40 °F 50 °F 26 °F (1970)
Degree Days  
Heating Degree Days 12 6  
Month to date heating degree days 67  
Since 1 July heating degree days 100  
Cooling Degree Days 0 2  
Month to date cooling degree days 46  
Year to date cooling degree days 3101  
Growing Degree Days 2 (Base 50)    
Moisture  
Dew Point 39 °F    
Average Humidity 57    
Maximum Humidity 84    
Minimum Humidity 40    
Precipitation  
Precipitation 0.00 in 0.08 in 2.50 in (1907)
Month to date precipitation 1.38  
Year to date precipitation 29.46  
Snow  
Snow 0.00 in - - ()
Month to date snowfall  
Since 1 July snowfall  
Since 1 September snowfall  
Snow Depth -    
Sea Level Pressure  
Sea Level Pressure 30.31 in    
Wind  
Wind Speed 2 mph (ENE)    
Max Wind Speed 10 mph    
Max Gust Speed 16 mph    
Visibility 10 miles    
Events      
T = Trace of Precipitation, MM = Missing Value Source: NWS Daily Summary

Daily Weather History Graph

Daily Weather History Graph

Search for Another Location

Airport:

Trip Planner

Search our weather history database for the weather conditions in past years. The results will help you decide how hot, cold, wet, or windy it might be!

Date:

Astronomy

Nov. 16, 2012 Rise Set
Actual Time 7:02 AM CST 5:38 PM CST
Civil Twilight 6:36 AM CST 6:03 PM CST
Nautical Twilight 6:07 AM CST 6:32 PM CST
Astronomical Twilight 5:39 AM CST 7:01 PM CST
Moon 9:54 AM CST (11/16) 8:42 PM CST (11/16)
Length of Visible Light 11h 26m
Length of Day
10h 35m
Waxing Crescent, 12% of the Moon is Illuminated
Nov 16
Waxing Crescent
Nov 20
First Quarter
Nov 28
Full
Dec 6
Last Quarter
Dec 13
New

Hourly Weather History & Observations

Time (CST) Temp. Dew Point Humidity Pressure Visibility Wind Dir Wind Speed Gust Speed Precip Events Conditions
12:15 AM 53.4 °F 39.4 °F 59% 30.29 in 10.0 mi Calm Calm - N/A   Overcast
12:35 AM 53.6 °F 40.3 °F 61% 30.29 in 10.0 mi Calm Calm - N/A   Overcast
12:55 AM 53.4 °F 41.7 °F 65% 30.29 in 10.0 mi Calm Calm - N/A   Overcast
1:15 AM 53.2 °F 40.1 °F 61% 30.29 in 10.0 mi Calm Calm - N/A   Overcast
1:35 AM 53.1 °F 39.2 °F 59% 30.28 in 10.0 mi Calm Calm - N/A   Overcast
1:55 AM 52.3 °F 41.2 °F 66% 30.29 in 10.0 mi Calm Calm - N/A   Overcast
2:15 AM 52.3 °F 41.0 °F 65% 30.29 in 10.0 mi Calm Calm - N/A   Overcast
2:35 AM 52.2 °F 40.1 °F 64% 30.29 in 10.0 mi Calm Calm - N/A   Overcast
2:55 AM 52.0 °F 40.6 °F 65% 30.29 in 10.0 mi Calm Calm - N/A   Overcast
3:35 AM 52.7 °F 41.9 °F 67% 30.29 in 10.0 mi Calm Calm - N/A   Overcast
3:55 AM 52.7 °F 42.1 °F 67% 30.29 in 10.0 mi Calm Calm - N/A   Overcast
4:15 AM 52.0 °F 41.4 °F 67% 30.29 in 10.0 mi Calm Calm - N/A   Overcast
4:35 AM 51.8 °F 41.2 °F 67% 30.29 in 10.0 mi Calm Calm - N/A   Overcast
4:55 AM 50.7 °F 41.7 °F 71% 30.29 in 10.0 mi Calm Calm - N/A   Overcast
5:15 AM 51.3 °F 42.3 °F 71% 30.30 in 10.0 mi Calm Calm - N/A   Overcast
5:35 AM 51.3 °F 41.9 °F 70% 30.29 in 10.0 mi NNE 4.6 mph - N/A   Overcast
5:55 AM 52.2 °F 38.7 °F 60% 30.30 in 10.0 mi NE 4.6 mph - N/A   Overcast
6:15 AM 53.1 °F 37.9 °F 57% 30.31 in 10.0 mi Calm Calm - N/A   Overcast
6:35 AM 52.3 °F 38.3 °F 59% 30.31 in 10.0 mi Calm Calm - N/A   Mostly Cloudy
6:55 AM 50.9 °F 39.7 °F 66% 30.31 in 7.0 mi Calm Calm - N/A   Scattered Clouds
7:15 AM 50.5 °F 40.1 °F 67% 30.32 in 10.0 mi Calm Calm - N/A   Clear
7:35 AM 49.3 °F 41.2 °F 74% 30.33 in 10.0 mi NE 3.5 mph - N/A   Clear
7:55 AM 51.1 °F 38.8 °F 63% 30.34 in 10.0 mi NE 3.5 mph - N/A   Scattered Clouds
8:15 AM 51.8 °F 38.1 °F 60% 30.35 in 10.0 mi ENE 3.5 mph - N/A   Scattered Clouds
8:35 AM 51.8 °F 37.6 °F 58% 30.35 in 10.0 mi ENE 6.9 mph - N/A   Clear
8:55 AM 52.3 °F 36.5 °F 55% 30.37 in 10.0 mi ENE 6.9 mph - N/A   Clear
9:15 AM 54.0 °F 36.5 °F 52% 30.37 in 10.0 mi East 6.9 mph - N/A   Clear
9:35 AM 55.4 °F 36.9 °F 50% 30.37 in 10.0 mi East 4.6 mph - N/A   Scattered Clouds
9:55 AM 57.2 °F 36.5 °F 46% 30.37 in 10.0 mi East 4.6 mph - N/A   Overcast
10:15 AM 57.6 °F 36.0 °F 44% 30.37 in 10.0 mi NE 3.5 mph - N/A   Mostly Cloudy
10:35 AM 60.1 °F 36.5 °F 41% 30.37 in 10.0 mi Calm Calm - N/A   Overcast
10:55 AM 61.5 °F 38.5 °F 43% 30.37 in 10.0 mi NE 6.9 mph - N/A   Mostly Cloudy
11:15 AM 61.2 °F 39.9 °F 46% 30.36 in 10.0 mi East 4.6 mph - N/A   Overcast
11:35 AM 62.6 °F 42.4 °F 48% 30.35 in 10.0 mi ENE 9.2 mph - N/A   Overcast
11:55 AM 63.9 °F 42.6 °F 46% 30.33 in 10.0 mi East 10.4 mph 16.1 mph N/A   Overcast
12:15 PM 63.9 °F 42.3 °F 45% 30.32 in 10.0 mi East 8.1 mph - N/A   Scattered Clouds
12:35 PM 64.0 °F 41.5 °F 44% 30.31 in 10.0 mi East 8.1 mph - N/A   Clear
12:55 PM 64.4 °F 41.2 °F 43% 30.31 in 10.0 mi East 8.1 mph - N/A   Clear
1:15 PM 64.9 °F 40.6 °F 41% 30.31 in 10.0 mi East 9.2 mph - N/A   Clear
1:35 PM 65.8 °F 41.0 °F 40% 30.29 in 10.0 mi East 8.1 mph - N/A   Clear
1:55 PM 65.3 °F 41.0 °F 41% 30.29 in 10.0 mi ENE 8.1 mph - N/A   Clear
2:15 PM 65.3 °F 40.6 °F 40% 30.28 in 10.0 mi East 3.5 mph - N/A   Clear
2:35 PM 65.5 °F 40.5 °F 40% 30.28 in 10.0 mi East 10.4 mph - N/A   Clear
2:55 PM 64.6 °F 40.1 °F 41% 30.28 in 10.0 mi East 8.1 mph - N/A   Clear
3:15 PM 65.1 °F 40.1 °F 40% 30.28 in 10.0 mi East 8.1 mph - N/A   Clear
3:35 PM 64.6 °F 39.7 °F 40% 30.28 in 10.0 mi East 5.8 mph - N/A   Clear
3:55 PM 64.8 °F 40.3 °F 41% 30.28 in 10.0 mi East 4.6 mph - N/A   Clear
4:15 PM 64.2 °F 40.1 °F 41% 30.28 in 10.0 mi East 3.5 mph - N/A   Clear
4:35 PM 63.9 °F 39.9 °F 41% 30.28 in 10.0 mi East 5.8 mph - N/A   Clear
4:55 PM 63.3 °F 40.5 °F 43% 30.28 in 10.0 mi East 3.5 mph - N/A   Clear
5:15 PM 61.9 °F 40.1 °F 45% 30.28 in 10.0 mi East 4.6 mph - N/A   Clear
5:35 PM 60.1 °F 40.5 °F 48% 30.29 in 10.0 mi East 3.5 mph - N/A   Clear
5:55 PM 58.3 °F 40.5 °F 52% 30.29 in 10.0 mi Calm Calm - N/A   Clear
6:15 PM 57.4 °F 40.1 °F 53% 30.30 in 10.0 mi Calm Calm - N/A   Clear
6:35 PM 55.9 °F 39.7 °F 55% 30.30 in 10.0 mi East 3.5 mph - N/A   Clear
6:55 PM 54.7 °F 39.4 °F 56% 30.31 in 10.0 mi ENE 3.5 mph - N/A   Clear
7:15 PM 53.2 °F 39.0 °F 59% 30.32 in 10.0 mi East 4.6 mph - N/A   Clear
7:55 PM 49.8 °F 37.9 °F 64% 30.32 in 10.0 mi Calm Calm - N/A   Clear
8:15 PM 50.5 °F 37.0 °F 60% 30.32 in 10.0 mi Calm Calm - N/A   Clear
8:35 PM 47.3 °F 36.7 °F 67% 30.33 in 10.0 mi Calm Calm - N/A   Clear
8:55 PM 47.3 °F 36.9 °F 67% 30.33 in 10.0 mi Calm Calm - N/A   Clear
9:15 PM 46.9 °F 35.8 °F 65% 30.33 in 10.0 mi ENE 4.6 mph - N/A   Clear
9:35 PM 48.2 °F 34.9 °F 60% 30.33 in 10.0 mi Calm Calm - N/A   Clear
9:55 PM 47.7 °F 34.9 °F 61% 30.33 in 10.0 mi Calm Calm - N/A   Clear
10:15 PM 45.3 °F 37.9 °F 75% 30.34 in 10.0 mi Calm Calm - N/A   Clear
10:35 PM 43.9 °F 37.6 °F 78% 30.34 in 10.0 mi Calm Calm - N/A   Clear
10:55 PM 44.2 °F 36.5 °F 74% 30.34 in 10.0 mi Calm Calm - N/A   Clear
11:15 PM 43.2 °F 34.9 °F 73% 30.34 in 10.0 mi Calm Calm - N/A   Clear
11:35 PM 40.6 °F 35.1 °F 80% 30.34 in 10.0 mi Calm Calm - N/A   Clear
11:55 PM 41.0 °F 36.5 °F 84% 30.35 in 10.0 mi Calm Calm - N/A   Clear